Location: Eppenbrunn
(49.1158°N, 7.5601°E)
Time: 03:07:16
(UTC+00:00)

Cosmos 2369 - Pass Details

Date: 09 April 2020
Orbit: 840 x 855 km, 71.0° (Epoch: 04 June)

Event Time Altitude Azimuth Distance (km) Brightness Sun altitude
Rises 21:06:23 0° 330° (NNW) 3,405 8.2 -24.7°
Reaches altitude 10° 21:08:50 10° 330° (NNW) 2,467 7.2 -25.0°
Maximum altitude 21:14:29 80° 244° (WSW) 859 3.6 -25.5°
Enters shadow 21:15:12 68° 180° (S) 906 3.6 -25.6°
